Location: St. Louis
(38.6270°N, 90.1994°W)
Time: 18:29:45
(UTC-05:00)

deb Delta - Pass Details

Date: 11 July 2022
Orbit: 1084 x 1202 km, 99.8° (Epoch: 13 August)

Event Time Altitude Azimuth Distance (km) Brightness Sun altitude
Exits shadow 02:16:20 59° 203° (SSW) 1,365 ? -27.1°
Maximum altitude 02:17:38 71° 256° (WSW) 1,259 ? -27.0°
Drops below altitude 10° 02:24:45 10° 341° (NNW) 3,104 ? -26.6°
Sets 02:27:21 0° 343° (NNW) 4,056 ? -26.4°
